User: anonymous   Login
Location: Unspecified
(0.0000°N, 0.0000°E)
Time: 02:52:57
(UTC+00:00)
Language:

AO-7 - Orbit

View from above orbital plane
View from above orbital plane
View from above satellite
View from above satellite

Ground track
Ground track

The orbit data is extracted from the following two-line orbital elements,

1  7530U 74089B   20017.54943383 -.00000019 +00000-0 +16616-3 0  9996
2  7530 101.7783 348.2750 0012025 297.7590 180.1092 12.53641696066952
Epoch (UTC): 17 January 2020 13:11:11
Eccentricity: 0.0012025
inclination: 101.7783°
perigee height: 1440 km
apogee height: 1459 km
right ascension of ascending node: 348.2750°
argument of perigee: 297.7590°
revolutions per day: 12.53641696
mean anomaly at epoch: 180.1092°
orbit number at epoch: 6695

The dashed part of the orbit path shows where the satellite is in the earth's shadow,  

DLR